Regional Weather Roundup
Issued by NWS

Home | Current Version | Previous Version | Graphics & Text | Print | Product List | Glossary Off
Versions: 1 2 3 4 5 6 7 8 9 10 11 12 13 14 15 16 17 18 19 20 21 22 23 24 25 26 27 28 29 30 31 32 33 34 35 36 37 38 39 40 41 42 43 44 45 46 47 48 49 50

000
ASUS43 KTOP 181608
RWRKS

WEATHER ROUNDUP FOR KANSAS
NATIONAL WEATHER SERVICE GOODLAND KS
1000 AM CST MON DEC 18 2017

NOTE:  "FAIR" INDICATES FEW OR NO CLOUDS BELOW 12,000 FEET WITH NO
SIGNIFICANT WEATHER AND/OR OBSTRUCTIONS TO VISIBILITY.

KSZ001>006-013>018-027>032-041>047-181700-
NORTHWEST KANSAS

CITY           SKY/WX    TMP DP  RH WIND       PRES   REMARKS
GOODLAND       SUNNY     35  27  72 SW10      29.98F WCI  27
HAYS           SUNNY     36  30  79 SW5       30.06S
HILL CITY      SUNNY     34  29  82 W7        30.04S
RUSSELL        SUNNY     31  28  89 SW12      30.05R WCI  22
$$

KSZ061>065-074>080-084>089-181700-
SOUTHWEST KANSAS

CITY           SKY/WX    TMP DP  RH WIND       PRES   REMARKS
DODGE CITY     SUNNY     34  27  75 S6        30.04F
ELKHART        SUNNY     38  31  73 W8        30.07R
GARDEN CITY    SUNNY     26  22  84 SW7       30.04F
GREAT BEND     SUNNY     36  28  73 SW5       30.07F
LIBERAL        SUNNY     33  25  72 W10       30.08S WCI  25
PRATT          SUNNY     36  30  77 SW9       30.07F
$$

KSZ066>073-081>083-090>101-181700-
SOUTHEAST KANSAS

CITY           SKY/WX    TMP DP  RH WIND       PRES   REMARKS
CHANUTE        MOSUNNY   43  40  89 SW13      30.13F FOG
COFFEYVILLE    CLOUDY    44  41  89 SW8       30.17R FOG
HUTCHINSON     SUNNY     37  31  78 CALM      30.08F
MEDICINE LODGE   N/A     33  29  85 CALM      30.11S
NEWTON         SUNNY     40  39  97 SW10      30.09F WCI  33
PARSONS        CLOUDY    44  41  89 SW9       30.17R FOG
WICHITA INTL   SUNNY     37  34  89 S8        30.10F
WICHITA JABRA  SUNNY     39  34  82 S9        30.09F
WICHITA MCCONL SUNNY     37  33  84 SW8       30.10F
WINFIELD       FOG       36  36 100 S8        30.16R VSB 1
$$

KSZ007>012-019>026-033>040-048>060-102>105-181700-
NORTHEAST KANSAS

CITY           SKY/WX    TMP DP  RH WIND       PRES   REMARKS
CONCORDIA      SUNNY     37  30  75 SW10      30.04R WCI  30
EMPORIA        SUNNY     42  34  73 SW10      30.09S
LAWRENCE       SUNNY     43  35  73 SW7       30.10R
MANHATTAN      SUNNY     39  33  79 SW9       30.09R
MARYSVILLE     SUNNY     36  32  87 SW10      30.04R WCI  28
OLATHE IND     SUNNY     41  37  86 SW10      30.10R FOG
OLATHE EXE     SUNNY     41  36  82 SW9       30.09S
SALINA         SUNNY     40  32  73 W8        30.09R
TOPEKA BILLARD SUNNY     43  35  73 SW7       30.09R
TOPEKA FORBES  SUNNY     43  39  86 SW10      30.09R
$$



USA.gov is the U.S. government's official web portal to all federal, state and local government web resources and services.